Home   Weather   Schwerin   Past weeks
Flag for Germany

Past Weather in Schwerin, Mecklenburg-Western Pomerania, Germany — Yesterday and Last 2 Weeks

Now
59 °F

Scattered clouds.


Feels Like: 59 °F
Forecast: 56 / 48 °F
Wind: 2 mph from North

Location: Luebeck-Blankensee

Current Time: Oct 21, 2019 at 6:08:47 pm

Latest Report: Oct 21, 2019 at 5:20 pm


Visibility: N/A

Pressure: 30.04 "Hg

Humidity: 94%

Dew Point: 57 °F

Location of SchwerinLocation

Past Weather in Schwerin — Graph

°F

Schwerin Temperature Yesterday

Maximum temperature yesterday: 57 °F (at 1:20 pm)
Minimum temperature yesterday: 50 °F (at 7:50 am)
Average temperature yesterday: 54 °F

High & Low Weather Summary for the Past Weeks

 TemperatureHumidityPressure
High68 °F (Oct 15, 1:50 pm)100% (Oct 7, 7:50 am)30.18 "Hg (Oct 7, 7:50 am)
Low28 °F (Oct 7, 7:50 am)52% (Oct 14, 4:50 pm)29.59 "Hg (Oct 8, 10:20 am)
Average55 °F86%29.79 "Hg
* Reported Oct 6 4:20 pm — Oct 21 4:50 pm, Schwerin. Weather by CustomWeather, © 2019

Note: Actual official high and low records may vary slightly from our data, if they occured in-between our weather recording intervals... More about our weather records

Advertising

Schwerin Weather History for the Previous 24 Hours

Scroll right to see more
 ConditionsComfort  
Time TempWeatherWind HumidityBarometerVisibility
4:50 pm
Mon, Oct 21
59 °FPartly sunny.3 mph88%30.04 "HgN/A
4:20 pm59 °FPartly sunny.2 mph88%30.04 "Hg6 mi
3:50 pm57 °FPartly sunny.3 mph94%30.04 "HgN/A
3:20 pm57 °FPartly sunny.3 mph94%30.04 "Hg4 mi
2:50 pm57 °FFog.3 mph94%30.04 "Hg3 mi
2:20 pm57 °FPartly sunny.3 mph94%30.04 "Hg4 mi
1:50 pm55 °FFog.5 mph100%30.04 "Hg3 mi
1:20 pm55 °FFog.6 mph100%30.04 "Hg3 mi
12:50 pm55 °FFog.6 mph94%30.04 "Hg2 mi
12:20 pm55 °FFog.5 mph94%30.04 "Hg2 mi
11:50 am54 °FLight rain. Fog.3 mph100%30.01 "Hg3 mi
11:20 am54 °FLight rain. Fog.10 mph94%29.98 "Hg1 mi
10:50 am54 °FLight rain. Fog.3 mph94%30.04 "Hg3 mi
10:20 am54 °FPartly sunny.3 mph94%30.04 "Hg4 mi
9:50 am54 °FPartly sunny.7 mph94%30.01 "HgN/A
9:20 am54 °FPartly sunny.5 mph94%30.01 "HgN/A
8:50 am54 °FPartly sunny.7 mph94%29.98 "HgN/A
8:20 am52 °FPartly sunny.7 mph100%29.98 "HgN/A
7:50 am52 °FPassing clouds.10 mph94%29.95 "HgN/A
7:20 am52 °FPassing clouds.10 mph100%29.95 "HgN/A
8:50 pm
Sun, Oct 20
52 °FLight rain. Passing clouds.5 mph94%29.92 "Hg4 mi
8:20 pm52 °FLight rain. Passing clouds.3 mph94%29.89 "HgN/A
7:50 pm52 °FLight rain. Passing clouds.7 mph94%29.89 "Hg6 mi
7:20 pm52 °FLight rain. Passing clouds.2 mph94%29.89 "Hg6 mi
6:50 pm54 °FLight rain. Passing clouds.3 mph94%29.89 "HgN/A
6:20 pm54 °FLight rain. Passing clouds.3 mph88%29.89 "HgN/A
Weather by CustomWeather, © 2019

See weather overview